Home   Weather   36°04'N, 120°22'E   Past weeks
Flag for China

Past Weather in 36°04'N, 120°22'E, China — Yesterday and Last 2 Weeks

Now
70 °F

Clear.


Feels Like: 70 °F
Forecast: 69 / 61 °F
Wind: 1 mph from North

Location: Qingdao Airport

Current Time: Oct 21, 2019 at 11:35:09 am

Latest Report: Oct 21, 2019 at 11:00 am


Visibility: 2 mi

Pressure: 30.09 "Hg

Humidity: 60%

Dew Point: 55 °F

Location of 36°04'N, 120°22'ELocation

Past Weather in 36°04'N, 120°22'E — Graph

°F

36°04'N, 120°22'E Temperature Yesterday

Maximum temperature yesterday: 75 °F (at 12:00 pm)
Minimum temperature yesterday: 54 °F (at 3:00 am)
Average temperature yesterday: 64 °F

High & Low Weather Summary for the Past Weeks

 TemperatureHumidityPressure
High77 °F (Oct 13, 2:00 pm)100% (Oct 10, 4:00 pm)30.57 "Hg (Oct 10, 4:00 pm)
Low41 °F (Oct 15, 2:00 am)25% (Oct 8, 2:00 pm)29.89 "Hg (Oct 10, 2:00 pm)
Average61 °F65%30.20 "Hg
* Reported Oct 6 10:00 am — Oct 21 10:00 am, 36°04'N, 120°22'E. Weather by CustomWeather, © 2019

Note: Actual official high and low records may vary slightly from our data, if they occured in-between our weather recording intervals... More about our weather records

Advertising

36°04'N, 120°22'E Weather History for the Previous 24 Hours

Scroll right to see more
 ConditionsComfort  
Time TempWeatherWind HumidityBarometerVisibility
10:00 am
Mon, Oct 21
70 °FClear.1 mph60%30.12 "Hg2 mi
9:00 am66 °FClear.1 mph68%30.12 "Hg2 mi
8:00 am66 °FFog.1 mph73%30.12 "Hg2 mi
7:00 am63 °FFog.1 mph88%30.09 "Hg2 mi
6:00 am63 °FFog.3 mph83%30.09 "Hg2 mi
5:00 am64 °FFog.1 mph78%30.09 "Hg3 mi
4:00 am64 °FClear.1 mph78%30.09 "Hg4 mi
3:00 am63 °FClear.3 mph83%30.09 "Hg4 mi
2:00 am63 °FClear.3 mph83%30.09 "Hg5 mi
1:00 am61 °FClear.6 mph83%30.09 "Hg5 mi
12:00 am64 °FClear.6 mph73%30.09 "Hg5 mi
11:00 pm
Sun, Oct 20
63 °FClear.6 mph73%30.12 "Hg10 mi
10:00 pm63 °FClear.6 mph68%30.12 "Hg10 mi
9:00 pm64 °FClear.8 mph68%30.12 "Hg10 mi
8:00 pm64 °FClear.6 mph64%30.12 "Hg10 mi
7:00 pm64 °FClear.6 mph64%30.12 "Hg10 mi
6:00 pm66 °FClear.8 mph64%30.09 "Hg10 mi
5:00 pm68 °FSunny.13 mph53%30.09 "Hg10 mi
4:00 pm70 °FSunny.15 mph50%30.09 "Hg10 mi
3:00 pm72 °FSunny.13 mph47%30.09 "Hg10 mi
2:00 pm73 °FPassing clouds.10 mph41%30.09 "HgN/A
1:00 pm75 °FPassing clouds.8 mph39%30.12 "HgN/A
12:00 pm75 °FPassing clouds.10 mph39%30.15 "HgN/A
11:00 am73 °FClear.8 mph41%30.15 "Hg5 mi
Weather by CustomWeather, © 2019

See weather overview